[[{"header":{"parameterUnit":"m.s-1","parameterCategory":1,"la1":30.2991,"la2":30.254,"lo1":-89.0895,"lo2":-89.0444,"dy":0.0017,"dx":0.0017,"nx":28,"ny":28,"refTime":"2025-07-16T03:00:00:Z","depth":0,"parameterNumber":2,"parameterNumberName":"U-component_of_WINDS"},"data":[0,0,0,0,0,0,0,0,0,0,0,0,0,0,0,0,0,0,0,0,0,0,0,0,0,0,0,0,0,0,0,0,0,0,0,0,0,0,0,0,0,0,0,0,0,0,0,0,0,0,0,0,0,0,0,0,0,0,-1.1532,-1.1534,0,-1.1712,-1.1714,-1.1716,-1.1817,-1.1817,-1.1817,-1.1817,-1.2004,-1.2008,-1.2013,0,0,0,0,0,0,0,0,0,0,0,0,0,-1.1277,-1.1281,-1.1532,-1.1534,-1.1537,-1.1712,-1.1714,-1.1717,-1.1817,-1.1817,-1.1817,-1.1818,-1.2002,-1.2008,-1.2013,0,0,0,0,0,0,0,0,0,0,0,0,0,-1.1415,-1.1282,-1.1532,-1.1607,-1.1616,-1.1711,-1.1715,-1.1718,-1.1816,-1.1817,-1.1817,-1.1818,-1.2,-1.2007,-1.2014,-1.2049,0,0,-1.2036,-1.2039,0,0,0,0,0,0,0,0,-1.1407,-1.1424,-1.1594,-1.1602,-1.1612,-1.1742,-1.1693,-1.1829,-1.1816,-1.174,-1.1817,-1.1818,-1.1917,-1.1931,-1.1963,-1.2058,-1.2066,-1.2036,-1.2041,-1.2044,-1.2046,0,0,0,0,0,0,0,-1.1398,-1.1417,-1.1603,-1.1596,-1.1607,-1.1633,-1.1653,-1.1719,-1.1824,-1.1747,-1.1755,-1.1775,-1.1922,-1.1956,-1.1969,-1.2068,-1.2036,-1.2042,-1.2047,-1.2049,-1.2201,-1.2201,0,0,0,0,0,0,-1.1375,-1.1409,-1.1598,-1.1609,-1.1509,-1.1637,-1.166,-1.17,-1.1823,-1.1843,-1.1774,-1.1779,-1.1944,-1.196,-1.1975,-1.2024,-1.2044,-1.205,-1.2054,-1.2201,-1.2201,-1.22,0,0,0,0,0,0,-1.137,-1.1391,-1.1591,-1.1511,-1.1538,-1.1641,-1.1686,-1.1703,-1.1738,-1.1844,-1.1863,-1.179,-1.1945,-1.1966,-1.203,-1.2032,-1.2053,-1.206,-1.2201,-1.2201,-1.2201,-1.2121,0,0,0,0,0,0,-1.1362,-1.1389,-1.1402,-1.151,-1.1542,-1.1641,-1.1686,-1.1707,-1.175,-1.1758,-1.1864,-1.1882,-1.1947,-1.2019,-1.2037,-1.2042,-1.2065,-1.2201,-1.2201,-1.2201,-1.2124,-1.2118,-1.2113,0,0,0,0,0,-1.1352,-1.1373,-1.1402,-1.1425,-1.1561,-1.1641,-1.1659,-1.1733,-1.175,-1.1765,-1.1833,-1.1879,-1.2029,-1.2024,-1.2046,-1.2053,-1.2202,-1.2201,-1.2201,-1.2127,-1.212,-1.2114,0,0,0,0,0,0,-1.1263,-1.1389,-1.1422,-1.1479,-1.1548,-1.1657,-1.1678,-1.1723,-1.1789,-1.1794,-1.1883,-1.1906,-1.1962,-1.2015,-1.2007,-1.2094,-1.212,-1.2124,-1.2057,-1.2051,-1.2046,-1.2031,-1.2071,0,0,0,0,0,-1.125,-1.1303,-1.1411,-1.145,-1.1483,-1.1574,-1.1612,-1.1663,-1.1738,-1.1768,-1.1841,-1.1913,-1.1977,-1.2017,-1.2082,-1.2133,-1.2158,-1.2149,-1.2143,-1.2138,-1.214,-1.2171,-1.2168,-1.2199,-1.2199,-1.2199,0,0,-1.1223,-1.1298,-1.1327,-1.1434,-1.1494,-1.1547,-1.1598,-1.1653,-1.1694,-1.1777,-1.1842,-1.1898,-1.1985,-1.2042,-1.2071,-1.2088,-1.2137,-1.2138,-1.2133,-1.2138,-1.217,-1.2167,-1.2165,-1.2199,-1.2199,-1.2199,0,0,-1.1202,-1.1264,-1.1303,-1.1362,-1.1452,-1.1513,-1.1522,-1.1625,-1.1665,-1.1731,-1.1795,-1.1846,-1.1953,-1.2013,-1.2057,-1.2058,-1.2104,-1.2077,-1.2048,-1.2078,-1.2075,-1.2074,-1.2074,-1.2073,-1.2079,-1.2079,-1.2079,0,-1.1157,-1.124,-1.1318,-1.1369,-1.1415,-1.1492,-1.1533,-1.1587,-1.1693,-1.1723,-1.174,-1.1877,-1.1941,-1.2013,-1.2013,-1.2047,-1.2061,-1.2065,-1.2069,-1.2068,-1.2068,-1.2069,-1.2069,-1.2075,-1.2075,-1.2076,-1.2076,0,-1.1181,-1.1237,-1.1259,-1.1358,-1.1406,-1.1452,-1.1538,-1.1578,-1.1624,-1.1684,-1.1751,-1.183,-1.1912,-1.1934,-1.198,-1.2013,-1.2021,-1.2052,-1.2081,-1.206,-1.2063,-1.2064,-1.2069,-1.2071,-1.2072,-1.2073,0,0,-1.1107,-1.1249,-1.1256,-1.1302,-1.1407,-1.1453,-1.1503,-1.1582,-1.1614,-1.1686,-1.173,-1.182,-1.185,-1.19,-1.1954,-1.198,-1.1976,-1.2009,-1.2012,-1.1999,-1.2017,-1.1992,-1.1991,-1.2007,-1.2007,-1.2008,-1.201,0,-1.11,-1.1191,-1.1263,-1.1328,-1.1382,-1.1456,-1.15,-1.1569,-1.1626,-1.1681,-1.1745,-1.1807,-1.1842,-1.1873,-1.1902,-1.197,-1.1981,-1.1971,-1.2049,-1.2051,-1.2024,-1.1993,-1.1966,-1.1964,-1.2011,-1.2012,-1.2012,0,-1.1103,-1.117,-1.124,-1.134,-1.1365,-1.1403,-1.1482,-1.1533,-1.1614,-1.1654,-1.1709,-1.1766,-1.1823,-1.1847,-1.1927,-1.1919,-1.1955,-1.1994,-1.1996,-1.2005,-1.2029,-1.2,-1.1965,-1.1964,-1.2014,-1.2014,-1.2014,0,-1.1041,-1.115,-1.1205,-1.1243,-1.1361,-1.1385,-1.1436,-1.1517,-1.1561,-1.163,-1.166,-1.1735,-1.1776,-1.1834,-1.191,-1.192,-1.1982,-1.2012,-1.2017,-1.2015,-1.2025,-1.2023,-1.1994,-1.205,-1.205,-1.205,-1.205,0,-1.1025,-1.1064,-1.1179,-1.1213,-1.126,-1.1343,-1.1388,-1.1445,-1.1517,-1.1564,-1.1634,-1.1677,-1.1775,-1.1831,-1.1891,-1.1948,-1.1966,-1.2,-1.2015,-1.1993,-1.1989,-1.2018,-1.2019,-1.205,-1.205,-1.205,-1.205,0,-1.0962,-1.1041,-1.1106,-1.1213,-1.124,-1.127,-1.1362,-1.1398,-1.146,-1.1519,-1.1538,-1.1634,-1.1703,-1.1785,-1.188,-1.1921,-1.1972,-1.1996,-1.1944,-1.1953,-1.1953,-1.1951,-1.194,-1.1943,-1.1997,-1.1996,-1.1996,0,-1.0946,-1.0978,-1.1088,-1.1124,-1.1172,-1.123,-1.1274,-1.1359,-1.1402,-1.1497,-1.1522,-1.1596,-1.166,-1.1767,-1.1846,-1.192,-1.1945,-1.1936,-1.1956,-1.1933,-1.1944,-1.194,-1.1944,-1.193,-1.1929,-1.1928,-1.1927,0,-1.0908,-1.0945,-1.1006,-1.1081,-1.1132,-1.1195,-1.1261,-1.1287,-1.1385,-1.1431,-1.1502,-1.1551,-1.1649,-1.1721,-1.1805,-1.1859,-1.1909,-1.1921,-1.1926,-1.1902,-1.1871,-1.1887,-1.1928,-1.192,-1.1921,-1.1921,-1.1922,-1.1922,-1.0868,-1.09,-1.0982,-1.1047,-1.1106,-1.1167,-1.1206,-1.1272,-1.1332,-1.1418,-1.1465,-1.1534,-1.1616,-1.1734,-1.1786,-1.1842,-1.186,-1.1867,-1.1869,-1.1869,-1.1862,-1.1863,-1.1858,-1.1858,-1.1859,-1.1859,-1.1859,0,-1.0833,-1.0889,-1.0949,-1.1039,-1.1091,-1.1134,-1.121,-1.1251,-1.1311,-1.1382,-1.1443,-1.1525,-1.1597,-1.1682,-1.1759,-1.1788,-1.1813,-1.1805,-1.1803,-1.1815,-1.1842,-1.183,-1.1783,-1.1783,-1.1783,-1.1783,-1.1783,-1.1784,-1.082,-1.0876,-1.0924,-1.101,-1.1068,-1.1135,-1.1175,-1.1231,-1.1289,-1.1376,-1.1436,-1.1491,-1.1569,-1.1652,-1.172,-1.1743,-1.1768,-1.1753,-1.1783,-1.1806,-1.1813,-1.1819,-1.1808,-1.1758,-1.1758,-1.1751,-1.1751,-1.1751]},{"header":{"parameterUnit":"m.s-1","parameterCategory":1,"la1":30.2991,"la2":30.254,"lo1":-89.0895,"lo2":-89.0444,"dy":0.0017,"dx":0.0017,"nx":28,"ny":28,"refTime":"2025-07-16T03:00:00:Z","depth":0,"parameterNumber":3,"parameterNumberName":"V-component_of_WINDS"},"data":[0,0,0,0,0,0,0,0,0,0,0,0,0,0,0,0,0,0,0,0,0,0,0,0,0,0,0,0,0,0,0,0,0,0,0,0,0,0,0,0,0,0,0,0,0,0,0,0,0,0,0,0,0,0,0,0,0,0,-0.0275,-0.0274,0,-0.0124,-0.0122,-0.012,-0.008,-0.008,-0.0081,-0.0082,0.0072,0.0077,0.0082,0,0,0,0,0,0,0,0,0,0,0,0,0,-0.0529,-0.0525,-0.0275,-0.0273,-0.0272,-0.0124,-0.0122,-0.012,-0.0079,-0.008,-0.0082,-0.0083,0.0071,0.0077,0.0082,0,0,0,0,0,0,0,0,0,0,0,0,0,-0.0403,-0.0523,-0.0276,-0.0234,-0.0228,-0.0124,-0.0122,-0.0119,-0.0079,-0.008,-0.0082,-0.0083,0.0069,0.0076,0.0083,0.0156,0,0,0.0106,0.0109,0,0,0,0,0,0,0,0,-0.041,-0.0393,-0.0242,-0.0236,-0.023,-0.0122,-0.0155,-0.0027,-0.0079,-0.0136,-0.0082,-0.0084,0.0009,0.0021,0.0052,0.0163,0.017,0.0107,0.0111,0.0114,0.0116,0,0,0,0,0,0,0,-0.0419,-0.04,-0.0215,-0.0239,-0.0232,-0.0222,-0.0206,-0.013,-0.0058,-0.0131,-0.0128,-0.011,0.0012,0.0045,0.0056,0.0172,0.0106,0.0113,0.0118,0.012,0.0352,0.0354,0,0,0,0,0,0,-0.0435,-0.0407,-0.022,-0.0211,-0.0325,-0.0216,-0.0198,-0.0155,-0.0059,-0.0045,-0.0109,-0.0109,0.0033,0.0048,0.0062,0.0154,0.0114,0.0121,0.0125,0.035,0.0352,0.0354,0,0,0,0,0,0,-0.044,-0.0418,-0.0226,-0.0308,-0.0283,-0.0211,-0.0163,-0.0152,-0.0118,-0.0042,-0.0029,-0.0088,0.0033,0.0051,0.0133,0.016,0.0125,0.0131,0.0348,0.0351,0.0353,0.0339,0,0,0,0,0,0,-0.0448,-0.0421,-0.0393,-0.0308,-0.0278,-0.0158,-0.0161,-0.0148,-0.0105,-0.0103,-0.0019,-0.0006,0.0033,0.0121,0.014,0.017,0.0137,0.0346,0.0349,0.0352,0.0337,0.0341,0.0344,0,0,0,0,0,-0.0457,-0.0403,-0.0391,-0.0369,-0.0242,-0.0157,-0.014,-0.0096,-0.0103,-0.0074,-0.0025,-0.0009,0.0154,0.0129,0.0151,0.0183,0.0345,0.0348,0.0352,0.0336,0.034,0.0344,0,0,0,0,0,0,-0.0487,-0.0391,-0.0377,-0.0294,-0.0234,-0.015,-0.0112,-0.0093,-0.0029,-0.003,0.0022,0.0041,0.0119,0.0159,0.013,0.0259,0.025,0.0258,0.023,0.0235,0.0238,0.0226,0.0143,0,0,0,0,0,-0.0484,-0.0423,-0.0343,-0.0277,-0.0247,-0.0185,-0.0146,-0.0117,-0.0053,-0.0027,0.0028,0.009,0.0155,0.0197,0.0262,0.0344,0.0363,0.0377,0.038,0.0382,0.0388,0.0436,0.0443,0.0367,0.0367,0.0367,0,0,-0.0478,-0.0418,-0.0382,-0.0282,-0.0231,-0.0169,-0.0164,-0.0099,-0.0051,-0.0017,0.0063,0.0106,0.0179,0.0261,0.03,0.0297,0.0414,0.0387,0.0388,0.0393,0.044,0.0448,0.0454,0.0369,0.0369,0.0368,0,0,-0.0434,-0.0382,-0.0321,-0.0271,-0.0194,-0.0153,-0.0139,-0.0057,-0.0027,0.0055,0.0082,0.0139,0.025,0.0301,0.0342,0.0407,0.0424,0.0427,0.0443,0.0489,0.0495,0.05,0.0524,0.0532,0.0433,0.0433,0.0433,0,-0.0435,-0.034,-0.0293,-0.0228,-0.0184,-0.0149,-0.0087,-0.004,0.0053,0.0082,0.0078,0.022,0.0271,0.0366,0.0382,0.0414,0.0432,0.0417,0.049,0.0496,0.0502,0.0525,0.0534,0.0433,0.0433,0.0433,0.0433,0,-0.0345,-0.0279,-0.0239,-0.0149,-0.0101,-0.0038,0.0019,0.0063,0.0088,0.013,0.0213,0.0276,0.0355,0.0379,0.0404,0.0479,0.0475,0.048,0.0471,0.0508,0.0531,0.054,0.0432,0.0432,0.0432,0.0432,0,0,-0.0317,-0.0201,-0.0187,-0.0145,-0.0057,-0.0006,0.006,0.0137,0.0173,0.0237,0.0293,0.0387,0.0393,0.0439,0.047,0.051,0.0559,0.0511,0.0513,0.0518,0.0646,0.0641,0.0651,0.0571,0.0573,0.0575,0.064,0,-0.0262,-0.0144,-0.0099,-0.0003,0.0059,0.0094,0.0151,0.0211,0.0252,0.0311,0.0357,0.0423,0.0425,0.0453,0.0494,0.0544,0.0585,0.054,0.0624,0.0627,0.0605,0.0663,0.0658,0.0716,0.0649,0.065,0.0651,0,-0.0182,-0.0117,-0.0014,0.0067,0.0095,0.0145,0.022,0.0276,0.0345,0.0372,0.0424,0.0454,0.0524,0.0511,0.0609,0.0577,0.0614,0.0644,0.0648,0.0657,0.0641,0.0674,0.0736,0.0744,0.0666,0.0665,0.0664,0,-0.0171,-0.0058,0.0019,0.0053,0.015,0.0185,0.0226,0.0294,0.0338,0.0404,0.0433,0.0506,0.0546,0.0602,0.065,0.0636,0.0744,0.0735,0.0768,0.0767,0.0789,0.0787,0.0858,0.0813,0.0813,0.0813,0.0813,0,-0.0114,-0.0053,0.0025,0.0072,0.0142,0.0194,0.0262,0.0306,0.0366,0.0423,0.0458,0.051,0.0571,0.0631,0.0669,0.0745,0.0762,0.0786,0.0796,0.0783,0.078,0.0808,0.0805,0.0815,0.0815,0.0814,0.0814,0,-0.0091,-0.0037,0.0049,0.0134,0.0157,0.0205,0.0278,0.0325,0.0369,0.044,0.0459,0.0528,0.0601,0.0655,0.0749,0.0775,0.0855,0.0865,0.0832,0.0836,0.0867,0.0864,0.0959,0.0974,0.0918,0.0919,0.0919,0,-0.0059,-0.001,0.008,0.0121,0.0163,0.0227,0.0273,0.0326,0.0372,0.0455,0.0493,0.0568,0.0631,0.0746,0.0804,0.0877,0.0888,0.0917,0.0899,0.0886,0.0889,0.0885,0.0891,0.0919,0.0919,0.0919,0.092,0,-0.0006,0.0019,0.0083,0.0157,0.0211,0.0271,0.0333,0.0364,0.0428,0.0478,0.0554,0.0603,0.0699,0.0774,0.0853,0.0896,0.0919,0.0925,0.0937,0.0924,0.0903,0.0915,0.0838,0.0922,0.0922,0.0922,0.0922,0.0921,0.0023,0.0068,0.0139,0.021,0.0262,0.0319,0.0368,0.0418,0.0482,0.0565,0.0593,0.067,0.074,0.0848,0.0892,0.0954,0.0954,0.0971,0.0975,0.0978,0.0978,0.0893,0.0969,0.0969,0.0969,0.0969,0.0969,0,0.0077,0.0125,0.019,0.0275,0.0331,0.0348,0.0418,0.0463,0.0531,0.0595,0.0656,0.0743,0.0816,0.0881,0.0957,0.0994,0.1006,0.1012,0.101,0.102,0.0973,0.0956,0.1001,0.1001,0.1001,0.1001,0.1001,0.1001,0.0112,0.0189,0.0223,0.0327,0.0374,0.0451,0.0489,0.0542,0.0593,0.0689,0.075,0.0792,0.0856,0.0937,0.1005,0.1022,0.1048,0.1051,0.1071,0.1027,0.1023,0.1019,0.1003,0.1057,0.1057,0.1112,0.1113,0.1113]}]]